Weather History for KVUO - July, 2013

Change the Weather History Date:

Friday, July 5, 2013

  Actual Average Record
Temperature  
Mean Temperature 65 °F 67 °F  
Max Temperature 75 °F 78 °F 93 °F (1960)
Min Temperature 54 °F 56 °F 45 °F (1901)
Degree Days  
Heating Degree Days 0    
Month to date heating degree days 1  
Since 1 June heating degree days 57  
Since 1 July heating degree days 1  
Cooling Degree Days 0    
Month to date cooling degree days 29  
Year to date cooling degree days 96  
Since 1 June cooling degree days 84  
Growing Degree Days 15 (Base 50)    
Moisture  
Dew Point 51 °F    
Average Humidity 60    
Maximum Humidity 77    
Minimum Humidity 43    
Precipitation  
Precipitation 0.00 in 0.04 in 0.63 in (1923)
Month to date precipitation 0.00 0.20  
Year to date precipitation 14.98 20.57  
Snow  
Snow 0.00 in - - ()
Month to date snowfall 0.0  
Since 1 June snowfall 0.0  
Snow Depth 0.00 in    
Sea Level Pressure  
Sea Level Pressure 30.03 in    
Wind  
Wind Speed 2 mph (NNW)    
Max Wind Speed 9 mph    
Max Gust Speed 17 mph    
Visibility 10 miles    
Events      
T = Trace of Precipitation, MM = Missing Value Source: NWS Daily Summary

Daily Weather History Graph

Daily Weather History Graph

Search for Another Location

Airport or City:

Trip Planner

Search our weather history database for the weather conditions in past years. The results will help you decide how hot, cold, wet, or windy it might be!

Date:

Astronomy

Jul. 05, 2013 Rise Set
Actual Time 5:28 AM PDT 9:02 PM PDT
Civil Twilight 4:50 AM PDT 9:39 PM PDT
Nautical Twilight 4:00 AM PDT 10:29 PM PDT
Astronomical Twilight 2:54 AM PDT 11:34 PM PDT
Moon 3:34 AM PDT (7/5) 6:58 PM PDT (7/5)
Length of Visible Light 16h 49m
Length of Day
15h 34m
Waning Crescent, 6% of the Moon is Illuminated
Jul 5
Waning Crescent
Jul 8
New
Jul 15
First Quarter
Jul 22
Full
Jul 29
Last Quarter

Hourly Weather History & Observations

Time (PDT) Temp. Dew Point Humidity Pressure Visibility Wind Dir Wind Speed Gust Speed Precip Events Conditions
12:53 AM 60.1 °F 48.9 °F 67% 30.07 in 10.0 mi Calm Calm - N/A   Mostly Cloudy
1:53 AM 59.0 °F 48.9 °F 69% 30.06 in 10.0 mi Calm Calm - N/A   Clear
2:53 AM 55.9 °F 48.0 °F 75% 30.06 in 10.0 mi Calm Calm - N/A   Scattered Clouds
3:53 AM 55.9 °F 48.0 °F 75% 30.06 in 10.0 mi Calm Calm - N/A   Mostly Cloudy
4:53 AM 57.0 °F 48.9 °F 74% 30.06 in 10.0 mi Calm Calm - N/A   Overcast
5:53 AM 57.9 °F 50.0 °F 75% 30.06 in 10.0 mi Calm Calm - N/A   Overcast
6:18 AM 59.0 °F 50.0 °F 72% 30.05 in 10.0 mi Calm Calm - N/A   Overcast
6:53 AM 60.1 °F 50.0 °F 69% 30.06 in 10.0 mi Calm Calm - N/A   Overcast
7:00 AM 59.0 °F 51.8 °F 77% 30.06 in 10.0 mi Calm Calm - N/A   Overcast
7:53 AM 60.1 °F 50.0 °F 69% 30.06 in 10.0 mi Calm Calm - N/A   Overcast
8:53 AM 61.0 °F 50.0 °F 67% 30.07 in 10.0 mi Variable 3.5 mph - N/A   Overcast
9:53 AM 62.1 °F 48.9 °F 62% 30.06 in 10.0 mi NNE 4.6 mph - N/A   Overcast
10:53 AM 63.0 °F 50.0 °F 63% 30.06 in 10.0 mi Calm Calm - N/A   Overcast
11:53 AM 63.0 °F 50.0 °F 63% 30.06 in 10.0 mi Calm Calm - N/A   Overcast
12:53 PM 64.9 °F 51.1 °F 61% 30.05 in 10.0 mi East 3.5 mph - N/A   Overcast
1:53 PM 68.0 °F 52.0 °F 56% 30.04 in 10.0 mi Variable 3.5 mph - N/A   Overcast
2:53 PM 69.1 °F 52.0 °F 54% 30.02 in 10.0 mi NNW 4.6 mph - N/A   Scattered Clouds
3:53 PM 72.0 °F 52.0 °F 49% 30.00 in 10.0 mi Variable 3.5 mph - N/A   Partly Cloudy
4:53 PM 73.0 °F 52.0 °F 48% 29.98 in 10.0 mi Calm Calm - N/A   Partly Cloudy
5:53 PM 75.0 °F 52.0 °F 44% 29.95 in 10.0 mi WNW 9.2 mph - N/A   Scattered Clouds
6:53 PM 73.9 °F 50.0 °F 43% 29.95 in 10.0 mi North 5.8 mph - N/A   Clear
7:53 PM 72.0 °F 51.1 °F 48% 29.95 in 10.0 mi North 8.1 mph - N/A   Clear
8:53 PM 69.1 °F 52.0 °F 54% 29.96 in 10.0 mi NNW 5.8 mph - N/A   Clear
9:53 PM 64.9 °F 53.1 °F 65% 29.98 in 10.0 mi North 3.5 mph - N/A   Clear
10:53 PM 62.1 °F 52.0 °F 70% 29.98 in 10.0 mi NNW 6.9 mph - N/A   Clear
11:53 PM 60.1 °F 51.1 °F 72% 29.98 in 10.0 mi NW 5.8 mph - N/A   Clear